Location: Santa Cristina
(46.5667°N, 11.7167°E)
Time: 17:12:06
(UTC+00:00)

CZ-4C R/B - Pass Details

Date: 21 April 2021
Orbit: 612 x 1390 km, 63.4° (Epoch: 11 May)

Event Time Altitude Azimuth Distance (km) Brightness Sun altitude
Rises 01:02:30 0° 320° (NW) 3,788 5.8 -26.5°
Reaches altitude 10° 01:04:57 10° 322° (NW) 2,937 5.2 -26.3°
Maximum altitude 01:12:09 81° 50° (NE) 1,253 3.0 -25.6°
Drops below altitude 10° 01:20:32 10° 138° (SE) 3,395 5.2 -24.8°
Sets 01:23:33 0° 139° (SE) 4,407 5.8 -24.5°
